Showing default

QIANFAN-191, 69409

Orbit data source: Space-Track

QIANFAN-191, 69409 is a Chinese payload satellite in LEO that was launched on Fri, 05 Jun 2026 UTC via a CHANG ZHENG 8 launch vehicle from the Wenchang Satellite Launch Center (WSC). Payload-class satellites include a variety of spacecraft equipped with specific instruments for various scientific and technological missions. These include communications satellites like Starlink; space stations such as the ISS; scientific satellites like the Hubble; Earth observation satellites from companies like Planet Labs, Umbra, and HawkEye 360; GPS; miniature CubeSats for education and research; and military/defense satellites.

Loading next visibility...
Identifier
69409, 2026-125J
Orbit
LEO
Country
Flag of CNCN / PRC
Related business
Manufacturer
SECM?
Mission
Operational spacecraft
Bus & Motor
QIANFAN, Unknown motor
Mass
267 kg wet, ~267 kg dry
Launch date (UTC)
2026-06-05 (2 weeks ago)
Launch vehicle
CHANG ZHENG 8
Launch site
Wenchang Satellite Launch Center (WSC)
Object type
Payload
Rocket body
Debris
Shape & HBR
Unknown
Radar Cross Section
Large (>1 m²)

Expand to show TLE details & history
Last TLE update: 1 day ago

TLE from 1 day ago
0 QIANFAN-191
1 69409U 26125J   26170.71553640 -.01819046  00000-0 -99942+0 0  9994
2 69409  88.9947 280.1576 0012443 170.0084 190.1353 14.15407399  2061
Epoch: 2026-06-19T17:10Z
TLE epoch observation values (Epoch: 2026-06-19T17:10:22.344Z)
Latitude
-0.00008°
Longitude
114.62397°
Altitude
852.818 km
Speed
7.422 km/s
True Right ascension
18h 40m 37s
True Declination
0° 00' 00"
Sunlit
Object was in full shadow at epoch
Visualization orbit readout
Latitude
Unknown
Longitude
Unknown
Altitude
Unknown
Speed
Unknown
Apparent Right ascension
Unknown
Apparent Declination
Unknown
Sunlit
N/A
Visualization observer readout
Local Sidereal Time
07:12:01
Azimuth
Unknown
Elevation
Unknown
Doppler factor
Unknown
Orbital elements
Apogee altitude
846.863 km
Perigee altitude
828.906 km
Semi-major axis
7,216.021 km
Eccentricity
0.00124
Inclination
88.9947°
RAAN
280.1576°
Arg. of periapsis
170.0084°
True anomaly
190.11025°
Mean anomaly
190.1353°
Eccentric anomaly
190.12277°
Mean motion
3.54076 °/min
Orbital period
101.67 mins
BSTAR
-0.99942
Loading maneuver chart data...
Computing Atmospheric mass density...
Loading historical data...
Loading historical data...
Loading historical data...
Loading historical data...
Loading historical data...
Loading historical data...
Loading historical data...

Documentation

Showing up to 5 results
|